Weather History for Orlando International, FL

Change the Weather History Date:

Wednesday, October 2, 2013

  Actual Average Record
Temperature  
Mean Temperature 80 °F 79 °F  
Max Temperature 88 °F 87 °F 96 °F (1934)
Min Temperature 71 °F 70 °F 49 °F (1920)
Degree Days  
Heating Degree Days 0 0  
Month to date heating degree days 0 0  
Since 1 July heating degree days 0 0  
Cooling Degree Days 15 14  
Month to date cooling degree days 31 28  
Year to date cooling degree days 3016 2904  
Growing Degree Days 30 (Base 50)    
Moisture  
Dew Point 69 °F    
Average Humidity 74    
Maximum Humidity 93    
Minimum Humidity 55    
Precipitation  
Precipitation 0.00 in 0.16 in 1.93 in (1951)
Month to date precipitation 0.00 0.32  
Year to date precipitation 41.37 42.99  
Sea Level Pressure  
Sea Level Pressure 30.05 in    
Wind  
Wind Speed 8 mph (NE)    
Max Wind Speed 16 mph    
Max Gust Speed 21 mph    
Visibility 10 miles    
Events      
T = Trace of Precipitation, MM = Missing Value Source: NWS Daily Summary

Daily Weather History Graph

Daily Weather History Graph

Search for Another Location

Airport:

Trip Planner

Search our weather history database for the weather conditions in past years. The results will help you decide how hot, cold, wet, or windy it might be!

Date:

Astronomy

Oct. 02, 2013 Rise Set
Actual Time 7:18 AM EDT 7:09 PM EDT
Civil Twilight 6:55 AM EDT 7:33 PM EDT
Nautical Twilight 6:28 AM EDT 8:00 PM EDT
Astronomical Twilight 6:00 AM EDT 8:27 PM EDT
Moon 5:00 AM EDT (10/2) 5:37 PM EDT (10/2)
Length of Visible Light 12h 37m
Length of Day
11h 50m
Waning Crescent, 6% of the Moon is Illuminated
Oct 2
Waning Crescent
Oct 4
New
Oct 11
First Quarter
Oct 18
Full
Oct 26
Last Quarter

Hourly Weather History & Observations

Time (EDT) Temp. Heat Index Dew Point Humidity Pressure Visibility Wind Dir Wind Speed Gust Speed Precip Events Conditions
12:53 AM 73.9 °F - 69.1 °F 85% 30.06 in 10.0 mi NNE 10.4 mph - N/A   Clear
1:53 AM 73.9 °F - 69.1 °F 85% 30.07 in 10.0 mi NE 6.9 mph - N/A   Partly Cloudy
2:53 AM 73.0 °F - 69.1 °F 87% 30.06 in 10.0 mi NNE 6.9 mph - N/A   Partly Cloudy
3:53 AM 73.0 °F - 69.1 °F 87% 30.04 in 10.0 mi NNE 4.6 mph - N/A   Partly Cloudy
4:53 AM 72.0 °F - 69.1 °F 91% 30.04 in 10.0 mi NNE 4.6 mph - N/A   Clear
5:53 AM 71.1 °F - 68.0 °F 90% 30.04 in 10.0 mi North 5.8 mph - N/A   Clear
6:53 AM 71.1 °F - 68.0 °F 90% 30.05 in 10.0 mi NNE 4.6 mph - N/A   Partly Cloudy
7:53 AM 73.0 °F - 68.0 °F 84% 30.06 in 10.0 mi NNE 10.4 mph - N/A   Scattered Clouds
8:53 AM 77.0 °F - 68.0 °F 74% 30.07 in 10.0 mi NNE 8.1 mph - N/A   Partly Cloudy
9:53 AM 81.0 °F 83.8 °F 68.0 °F 65% 30.08 in 10.0 mi NNE 12.7 mph - N/A   Partly Cloudy
10:53 AM 82.9 °F 86.5 °F 69.1 °F 63% 30.08 in 10.0 mi NE 8.1 mph - N/A   Scattered Clouds
11:53 AM 84.9 °F 88.8 °F 69.1 °F 59% 30.07 in 10.0 mi East 8.1 mph - N/A   Scattered Clouds
12:53 PM 86.0 °F 90.1 °F 69.1 °F 57% 30.06 in 10.0 mi NE 9.2 mph - N/A   Scattered Clouds
1:53 PM 86.0 °F 90.1 °F 69.1 °F 57% 30.04 in 10.0 mi ENE 9.2 mph - N/A   Mostly Cloudy
2:53 PM 86.0 °F 90.1 °F 69.1 °F 57% 30.03 in 10.0 mi NE 12.7 mph - N/A   Mostly Cloudy
3:53 PM 87.1 °F 91.3 °F 69.1 °F 55% 30.01 in 10.0 mi NE 8.1 mph - N/A   Mostly Cloudy
4:53 PM 86.0 °F 90.1 °F 69.1 °F 57% 30.01 in 10.0 mi NE 12.7 mph 20.7 mph N/A   Mostly Cloudy
5:53 PM 82.9 °F 86.5 °F 69.1 °F 63% 30.02 in 10.0 mi ENE 10.4 mph - N/A   Mostly Cloudy
6:53 PM 81.0 °F 84.4 °F 70.0 °F 69% 30.03 in 10.0 mi ENE 13.8 mph - N/A   Mostly Cloudy
7:53 PM 78.1 °F - 70.0 °F 76% 30.05 in 10.0 mi ENE 9.2 mph - N/A   Mostly Cloudy
8:53 PM 77.0 °F - 69.1 °F 76% 30.06 in 10.0 mi ENE 10.4 mph - N/A   Partly Cloudy
9:53 PM 75.9 °F - 68.0 °F 76% 30.08 in 10.0 mi NE 8.1 mph - N/A   Partly Cloudy
10:53 PM 75.0 °F - 68.0 °F 79% 30.08 in 10.0 mi East 4.6 mph - N/A   Clear
11:53 PM 75.0 °F - 68.0 °F 79% 30.08 in 10.0 mi ENE 4.6 mph - N/A   Clear